Oceana NAS, VA

11:39 PM EDT on May 23, 2017 (GMT -0400)
Oceana Naval Air Station

Weather History for KNTU - September, 2013

Change the Weather History Date:

Friday, September 6, 2013

  Actual Average Record
Temperature  
Mean Temperature 72 °F -  
Max Temperature 79 °F 79 °F 91 °F (2012)
Min Temperature 66 °F 65 °F 55 °F (1997)
Cooling Degree Days 7    
Growing Degree Days 22 (Base 50)    
Moisture  
Dew Point 60 °F    
Average Humidity 64    
Maximum Humidity 90    
Minimum Humidity 50    
Precipitation  
Precipitation 0.00 in - - ()
Sea Level Pressure  
Sea Level Pressure 30.13 in    
Wind  
Wind Speed 10 mph (ENE)    
Max Wind Speed 17 mph    
Max Gust Speed 24 mph    
Visibility 10 miles    
Events      
Averages and records for this station are not official NWS values.
T = Trace of Precipitation, MM = Missing Value Source: NWS Daily Summary

Daily Weather History Graph

Daily Weather History Graph

Search for Another Location

Airport or City:

Trip Planner

Search our weather history database for the weather conditions in past years. The results will help you decide how hot, cold, wet, or windy it might be!

Date:

Astronomy

Sep. 06, 2013 Rise Set
Actual Time 6:39 AM EDT 7:24 PM EDT
Civil Twilight 6:13 AM EDT 7:51 PM EDT
Nautical Twilight 5:41 AM EDT 8:21 PM EDT
Astronomical Twilight 5:10 AM EDT 8:53 PM EDT
Moon 7:46 AM EDT (9/6) 7:51 PM EDT (9/6)
Length of Visible Light 13h 38m
Length of Day
12h 45m
New Moon, 1% of the Moon is Illuminated
Sep 6
New Moon
Sep 12
First Quarter
Sep 19
Full
Sep 26
Last Quarter
Oct 4
New

Hourly Weather History & Observations

Time (EDT) Temp. Dew Point Humidity Pressure Visibility Wind Dir Wind Speed Gust Speed Precip Events Conditions
12:56 AM 71.1 °F 68.0 °F 90% 30.07 in 10.0 mi Calm Calm - N/A   Clear
1:56 AM 73.9 °F 68.0 °F 82% 30.07 in 10.0 mi North 9.2 mph - N/A   Partly Cloudy
2:56 AM 73.9 °F 69.1 °F 85% 30.07 in 10.0 mi NE 16.1 mph 21.9 mph N/A   Scattered Clouds
3:56 AM 73.9 °F 66.0 °F 76% 30.07 in 10.0 mi ENE 17.3 mph 21.9 mph N/A   Scattered Clouds
4:56 AM 73.9 °F 64.0 °F 71% 30.09 in 10.0 mi NE 12.7 mph - N/A   Scattered Clouds
5:56 AM 73.0 °F 63.0 °F 71% 30.10 in 10.0 mi ENE 10.4 mph - N/A   Mostly Cloudy
6:56 AM 73.9 °F 64.0 °F 71% 30.11 in 10.0 mi ENE 12.7 mph 18.4 mph N/A   Mostly Cloudy
7:56 AM 73.9 °F 63.0 °F 68% 30.14 in 10.0 mi ENE 10.4 mph - N/A   Mostly Cloudy
8:56 AM 75.0 °F 61.0 °F 62% 30.15 in 10.0 mi ENE 13.8 mph 23.0 mph N/A   Mostly Cloudy
9:56 AM 75.9 °F 60.1 °F 58% 30.17 in 10.0 mi ENE 15.0 mph 24.2 mph N/A   Mostly Cloudy
10:56 AM 78.1 °F 60.1 °F 54% 30.18 in 10.0 mi ENE 15.0 mph 23.0 mph N/A   Scattered Clouds
11:56 AM 78.1 °F 59.0 °F 52% 30.18 in 10.0 mi ENE 16.1 mph 20.7 mph N/A   Mostly Cloudy
12:56 PM 78.1 °F 61.0 °F 56% 30.18 in 10.0 mi ENE 12.7 mph - N/A   Mostly Cloudy
1:56 PM 78.1 °F 59.0 °F 52% 30.18 in 10.0 mi East 13.8 mph - N/A   Scattered Clouds
2:56 PM 77.0 °F 59.0 °F 54% 30.16 in 10.0 mi East 11.5 mph - N/A   Scattered Clouds
3:56 PM 77.0 °F 57.9 °F 52% 30.14 in 10.0 mi ENE 13.8 mph - N/A   Scattered Clouds
4:56 PM 75.9 °F 55.9 °F 50% 30.13 in 10.0 mi East 12.7 mph - N/A   Scattered Clouds
5:56 PM 73.9 °F 54.0 °F 50% 30.14 in 10.0 mi East 11.5 mph - N/A   Scattered Clouds
6:56 PM 72.0 °F 54.0 °F 53% 30.14 in 10.0 mi ENE 9.2 mph - N/A   Partly Cloudy
7:56 PM 69.1 °F 55.0 °F 61% 30.13 in 10.0 mi East 5.8 mph - N/A   Partly Cloudy
8:56 PM 69.1 °F 55.0 °F 61% 30.14 in 10.0 mi East 4.6 mph - N/A   Clear
9:56 PM 69.1 °F 55.0 °F 61% 30.15 in 10.0 mi East 5.8 mph - N/A   Partly Cloudy
10:56 PM 66.9 °F 55.0 °F 66% 30.14 in 10.0 mi East 3.5 mph - N/A   Partly Cloudy
11:56 PM 66.0 °F 55.0 °F 68% 30.14 in 10.0 mi ESE 3.5 mph - N/A   Partly Cloudy